Regional Weather Roundup
Issued by NWS

Home | Current Version | Previous Version | Text Only | Print | Product List | Glossary Off
Versions: 1 2 3 4 5 6 7 8 9 10 11 12 13 14 15 16 17 18 19 20 21 22 23 24 25 26 27 28 29 30 31 32 33 34 35 36 37 38 39 40 41 42 43 44 45 46 47 48 49 50

000
ASUS43 KOAX 280902
RWRNE

WEATHER ROUNDUP FOR NEBRASKA
NATIONAL WEATHER SERVICE OMAHA NE
400 AM CDT TUE MAR 28 2017

NOTES: SATELLITE DATA IS BEING USED TO AUGMENT CLOUD COVER ABOVE
       12000 FEET.
       "FAIR" INDICATES FEW OR NO CLOUDS BELOW 12,000 FEET WITH NO
       SIGNIFICANT WEATHER AND/OR OBSTRUCTIONS TO VISIBILITY.

  * THESE STATIONS DO NOT REPORT WEATHER SUCH AS RAIN...SNOW OR FOG.

NEZ001>004-019>022-054>056-281000-
NEBRASKA PANHANDLE

CITY           SKY/WX    TMP DP  RH WIND       PRES   REMARKS
SCOTTSBLUFF    LGT RAIN  48  45  89 NE7       29.88F
ALLIANCE       LGT RAIN  45  43  93 S6        29.90S
CHADRON        LGT RAIN  44  40  85 N3        29.91S
KIMBALL        CLOUDY    45  45  99 E13       29.85S
SIDNEY         LGT RAIN  45  42  89 SE12      29.89F FOG
$$

NEZ057>060-069>072-079>082-281000-
SOUTHWEST NEBRASKA

CITY           SKY/WX    TMP DP  RH WIND       PRES   REMARKS
NORTH PLATTE   MOCLDY    43  40  89 SE6       29.94S
IMPERIAL       LGT RAIN  46  42  86 SE13      29.91S
LEXINGTON      FOG       41  40  95 SE8       29.97R VSB 1/2
MCCOOK         CLOUDY    45  43  93 E6        29.94F
OGALLALA       LGT RAIN  46  43  86 SE6       29.92R
$$

NEZ005>010-023>029-035>040-094-281000-
NORTH CENTRAL NEBRASKA

CITY           SKY/WX    TMP DP  RH WIND       PRES   REMARKS
VALENTINE      CLOUDY    47  41  80 SE6       29.97S
AINSWORTH      CLOUDY    44  43  96 SE6       29.97S
BROKEN BOW     CLOUDY    42  40  92 S8        29.97S FOG
O`NEILL        CLOUDY    43  41  93 SE5       30.02S
ORD            FOG       35  34  96 CALM      29.99S VSB 1/4
THEDFORD       CLOUDY    42  41  95 SE5       29.95S
$$

NEZ041-046>049-061>064-073>077-083>087-281000-
SOUTH CENTRAL NEBRASKA

CITY           SKY/WX    TMP DP  RH WIND       PRES   REMARKS
GRAND ISLAND   FOG       35  35 100 SE7       30.01R VSB 1/2 WCI  29
AURORA           N/A     33  33 100 E6        30.01S FOG     WCI  28
HASTINGS       PTCLDY    39  38  96 SE8       30.01R FOG     WCI  33
HEBRON           N/A     38  37  98 CALM      30.02S FOG
HOLDREGE       CLOUDY    39  38  95 SE6       29.97S FOG     WCI  35
KEARNEY *      CLOUDY    37  36  93 SE6       29.99S WCI  33
YORK           FOG       32  32 100 CALM      30.02S VSB 1/4
$$

NEZ011>018-030>034-042>045-281000-
NORTHEAST NEBRASKA

CITY           SKY/WX    TMP DP  RH WIND       PRES   REMARKS
NORFOLK        CLOUDY    36  34  92 CALM      30.03S FOG
ALBION         CLOUDY    40  37  89 CALM      30.02S
FREMONT        CLOUDY    40  40 100 CALM      30.05S
TEKAMAH        CLEAR     33  32  96 NW6       30.05S WCI  28
WAYNE          PTCLDY    31  31  99 CALM      30.05S FOG
$$

NEZ050>053-065>068-078-088>093-281000-
SOUTHEAST NEBRASKA

CITY           SKY/WX    TMP DP  RH WIND       PRES   REMARKS
LINCOLN        PTCLDY    34  33  96 N6        30.05S WCI  29
OMAHA EPPLEY   PTCLDY    35  31  85 NW3       30.05S
BEATRICE       CLOUDY    36  35  99 NE5       30.02F FOG     WCI  32
FALLS CITY     CLOUDY    45  42  89 NW3       30.02S
NEBRASKA CITY  CLOUDY    45  40  84 N3        30.03S
PLATTSMOUTH    CLOUDY    42  37  82 NW3       30.04S
$$

NEZ044-045-051>053-067-281000-
OMAHA AREA

CITY           SKY/WX    TMP DP  RH WIND       PRES   REMARKS
OMAHA EPPLEY   PTCLDY    35  31  85 NW3       30.05S
FREMONT        CLOUDY    40  40 100 CALM      30.05S
MILLARD        CLOUDY    44  41  89 CALM      30.04F
OFFUTT AFB     CLOUDY    40  37  91 W3        30.04S
PLATTSMOUTH    CLOUDY    42  37  82 NW3       30.04S
WAHOO          CLOUDY    40  38  95 N3        30.04F
$$



USA.gov is the U.S. government's official web portal to all federal, state and local government web resources and services.